Hourly Data Report for October 25, 2013

All times are specified in Local Standard Time (LST). Add 1 hour to adjust for Daylight Saving Time where and when it is observed.

RANKIN INLET A
NUNAVUT

62°48'38.000" N
92°06'53.000" W
32.30 m
2303405
71083
YRT

Download Data

Hourly Data (October 2013)
Hourly Data Report for October 25, 2013
Temp Definition
°C
Dew Point Temp Definition
°C
Rel Hum Definition
%
Wind Dir Definition
10's deg

Wind Spd Definition
km/h
Visibility Definition
km
Stn Press Definition
kPa
Hmdx Definition


Wind Chill Definition


Weather Definition


TIME
00:00 Legend Double Dagger -5.2 -6.0 94 31 9 24.1 100.67   -9 Snow
01:00 Legend Double Dagger -5.6 -6.1 96 31 10 6.4 100.63   -10 Snow,Fog
02:00 Legend Double Dagger -5.6 -6.3 95 34 8 0.4 100.62   -9 Snow,Freezing Fog
03:00 Legend Double Dagger -5.7 -6.5 94 31 6 0.8 100.61   -9 Snow,Freezing Fog
04:00 Legend Double Dagger -5.4 -6.2 94 31 11 1.6 100.60   -10 Fog
05:00 Legend Double Dagger -5.8 -6.6 94 34 13 1.6 100.61   -11 Fog
06:00 Legend Double Dagger -6.1 -7.1 93 1 9 9.7 100.61   -10 Fog
07:00 Legend Double Dagger -6.8 -7.8 93 35 13 19.3 100.63   -12 LegendNANA
08:00 Legend Double Dagger -5.9 -6.9 93 36 20 16.1 100.68   -13 LegendNANA
09:00 Legend Double Dagger -6.1 -7.1 93 1 19 24.1 100.69   -13 Cloudy
10:00 Legend Double Dagger -6.6 -7.7 92 36 13 24.1 100.73   -12 LegendNANA
11:00 Legend Double Dagger -5.9 -6.9 93 35 22 24.1 100.75   -13 LegendNANA
12:00 Legend Double Dagger -5.7 -7.1 90 35 18 24.1 100.78   -12 Cloudy
13:00 Legend Double Dagger -5.8 -7.8 86 34 18 24.1 100.80   -12 LegendNANA
14:00 Legend Double Dagger -6.2 -7.9 88 32 14 24.1 100.85   -12 LegendNANA
15:00 Legend Double Dagger -5.9 -7.6 88 32 16 24.1 100.88   -12 Cloudy
16:00 Legend Double Dagger -5.9 -7.0 92 33 15 24.1 100.89   -12 LegendNANA
17:00 Legend Double Dagger -5.6 -6.6 93 30 11 24.1 100.91   -10 LegendNANA
18:00 Legend Double Dagger -5.6 -6.6 93 30 11 24.1 100.90   -10 Cloudy
19:00 Legend Double Dagger -5.7 -6.8 92 30 12 24.1 100.89   -11 LegendNANA
20:00 Legend Double Dagger -5.1 -6.2 92 30 16 24.1 100.86   -11 LegendNANA
21:00 Legend Double Dagger -5.2 -6.0 94 33 22 4.8 100.83   -12 Snow
22:00 Legend Double Dagger -5.3 -6.1 94 32 17 16.1 100.80   -11 Snow
23:00 Legend Double Dagger -7.4 -8.9 89 34 32 24.1 100.78   -16 Snow

Notes on Data Quality.

Legend

  • E = Estimated
  • M = Missing
  • NA = Not Available
  • ‡ = Partner data that is not subject to review by the National Climate Archives
Date modified: